When you browse on this site, cookies collect data to enhance your experience and personalize the content and advertising you see.
Visit our Privacy Policy to learn more. By continuing to use the site, you agree to this use of cookies and data.
  • In Österreich
  • Länderverzeichnis
  • Für 7 Tage
  • Wassertemperatur
  • Wetterkarte
  • News
  • Widgets
  • user-avatar
    Anmelden

    Stündliche Wetter Krutoe

    Heute, 3 Juni, Mittwoch

    Zeit Temperatur Niederschläge Wind Luftdruck Luftfeuchtigkeit
    00:00 +9°C° 0.1 mm 3 m/S 739 mmHg 90%
    01:00 +8°C° 0.1 mm 3 m/S 739 mmHg 92%
    02:00 +8°C° 0.1 mm 3 m/S 739 mmHg 94%
    03:00 +9°C° 0 mm 3 m/S 739 mmHg 95%
    04:00 +9°C° 0 mm 3 m/S 739 mmHg 95%
    05:00 +9°C° 0 mm 2 m/S 739 mmHg 96%
    06:00 +9°C° 0 mm 2 m/S 739 mmHg 94%
    07:00 +10°C° 0 mm 3 m/S 739 mmHg 93%
    08:00 +11°C° 0 mm 3 m/S 739 mmHg 91%
    09:00 +12°C° 0.1 mm 2 m/S 739 mmHg 89%
    10:00 +13°C° 0.1 mm 2 m/S 738 mmHg 86%
    11:00 +13°C° 0.1 mm 2 m/S 738 mmHg 84%
    12:00 +14°C° 0.1 mm 2 m/S 738 mmHg 81%
    13:00 +15°C° 0.1 mm 2 m/S 738 mmHg 78%
    14:00 +16°C° 0.1 mm 2 m/S 738 mmHg 75%
    15:00 +16°C° 0.1 mm 2 m/S 738 mmHg 74%
    16:00 +16°C° 0.1 mm 2 m/S 738 mmHg 73%
    17:00 +17°C° 0.1 mm 2 m/S 737 mmHg 71%
    18:00 +15°C° 0.1 mm 2 m/S 737 mmHg 79%
    19:00 +14°C° 0.1 mm 2 m/S 737 mmHg 87%
    20:00 +12°C° 0.1 mm 2 m/S 737 mmHg 94%
    21:00 +10°C° 0 mm 2 m/S 737 mmHg 95%
    22:00 +11°C° 0 mm 1 m/S 737 mmHg 96%
    23:00 +10°C° 0 mm 1 m/S 737 mmHg 97%

    Morgen, 4 Juni, Donnerstag

    Zeit Temperatur Niederschläge Wind Luftdruck Luftfeuchtigkeit
    00:00 +9°C° 0 mm 1 m/S 736 mmHg 97%
    01:00 +9°C° 0 mm 1 m/S 736 mmHg 96%
    02:00 +9°C° 0 mm 1 m/S 736 mmHg 96%
    03:00 +9°C° 0 mm 1 m/S 736 mmHg 96%
    04:00 +10°C° 0 mm 1 m/S 736 mmHg 95%
    05:00 +10°C° 0 mm 1 m/S 736 mmHg 94%
    06:00 +12°C° 0 mm 1 m/S 736 mmHg 87%
    07:00 +14°C° 0 mm 1 m/S 736 mmHg 79%
    08:00 +16°C° 0 mm 2 m/S 736 mmHg 72%
    09:00 +17°C° 0.1 mm 2 m/S 736 mmHg 68%
    10:00 +17°C° 0.1 mm 3 m/S 735 mmHg 64%
    11:00 +18°C° 0.1 mm 3 m/S 735 mmHg 60%
    12:00 +18°C° 0.6 mm 4 m/S 735 mmHg 67%
    13:00 +17°C° 0.6 mm 4 m/S 735 mmHg 75%
    14:00 +15°C° 0.6 mm 4 m/S 735 mmHg 83%
    15:00 +14°C° 0.3 mm 4 m/S 735 mmHg 85%
    16:00 +14°C° 0.3 mm 3 m/S 735 mmHg 86%
    17:00 +14°C° 0.3 mm 3 m/S 735 mmHg 88%
    18:00 +14°C° 0.3 mm 2 m/S 735 mmHg 91%
    19:00 +13°C° 0.3 mm 2 m/S 735 mmHg 93%
    20:00 +12°C° 0.3 mm 2 m/S 735 mmHg 95%
    21:00 +12°C° 0 mm 2 m/S 735 mmHg 95%
    22:00 +10°C° 0 mm 2 m/S 735 mmHg 96%
    23:00 +9°C° 0 mm 2 m/S 735 mmHg 96%

    übermorgen, 5 Juni, Freitag

    Zeit Temperatur Niederschläge Wind Luftdruck Luftfeuchtigkeit
    00:00 +9°C° 0 mm 2 m/S 735 mmHg 97%
    01:00 +9°C° 0 mm 2 m/S 735 mmHg 97%
    02:00 +9°C° 0 mm 2 m/S 735 mmHg 97%
    03:00 +9°C° 0 mm 2 m/S 735 mmHg 97%
    04:00 +9°C° 0 mm 2 m/S 735 mmHg 97%
    05:00 +9°C° 0 mm 2 m/S 735 mmHg 97%
    06:00 +10°C° 0 mm 3 m/S 735 mmHg 93%
    07:00 +12°C° 0 mm 3 m/S 735 mmHg 90%
    08:00 +13°C° 0 mm 3 m/S 735 mmHg 86%
    09:00 +16°C° 0.1 mm 3 m/S 735 mmHg 77%
    10:00 +17°C° 0.1 mm 3 m/S 735 mmHg 68%
    11:00 +19°C° 0.1 mm 4 m/S 735 mmHg 59%
    12:00 +19°C° 0.1 mm 4 m/S 735 mmHg 57%
    13:00 +20°C° 0.1 mm 4 m/S 735 mmHg 56%
    14:00 +21°C° 0.1 mm 3 m/S 735 mmHg 54%
    15:00 +20°C° 0 mm 3 m/S 735 mmHg 57%
    16:00 +20°C° 0 mm 3 m/S 735 mmHg 59%
    17:00 +20°C° 0 mm 3 m/S 736 mmHg 62%
    18:00 +19°C° 0 mm 3 m/S 736 mmHg 71%
    19:00 +17°C° 0 mm 3 m/S 736 mmHg 80%
    20:00 +14°C° 0 mm 3 m/S 736 mmHg 90%
    21:00 +14°C° 0 mm 3 m/S 736 mmHg 92%
    22:00 +13°C° 0 mm 3 m/S 736 mmHg 95%
    23:00 +13°C° 0 mm 3 m/S 736 mmHg 98%

    6 Juni, Samstag

    Zeit Temperatur Niederschläge Wind Luftdruck Luftfeuchtigkeit
    00:00 +13°C° 0.4 mm 3 m/S 736 mmHg 98%
    01:00 +13°C° 0.4 mm 3 m/S 736 mmHg 97%
    02:00 +14°C° 0.4 mm 3 m/S 735 mmHg 97%
    03:00 +14°C° 0.2 mm 3 m/S 735 mmHg 97%
    04:00 +14°C° 0.2 mm 3 m/S 735 mmHg 97%
    05:00 +16°C° 0.2 mm 3 m/S 735 mmHg 97%
    06:00 +17°C° 0 mm 4 m/S 735 mmHg 94%
    07:00 +18°C° 0 mm 4 m/S 735 mmHg 91%
    08:00 +19°C° 0 mm 5 m/S 736 mmHg 87%
    09:00 +19°C° 0.5 mm 5 m/S 736 mmHg 89%
    10:00 +19°C° 0.5 mm 5 m/S 736 mmHg 91%
    11:00 +17°C° 0.5 mm 5 m/S 737 mmHg 93%
    12:00 +19°C° 0.7 mm 5 m/S 737 mmHg 87%
    13:00 +20°C° 0.7 mm 5 m/S 738 mmHg 82%
    14:00 +21°C° 0.7 mm 5 m/S 738 mmHg 77%
    15:00 +21°C° 0 mm 5 m/S 738 mmHg 70%
    16:00 +21°C° 0 mm 4 m/S 739 mmHg 64%
    17:00 +21°C° 0 mm 4 m/S 739 mmHg 58%
    18:00 +20°C° 0 mm 3 m/S 740 mmHg 67%
    19:00 +18°C° 0 mm 3 m/S 740 mmHg 75%
    20:00 +17°C° 0 mm 2 m/S 741 mmHg 84%
    21:00 +16°C° 0 mm 2 m/S 742 mmHg 88%
    22:00 +15°C° 0 mm 2 m/S 742 mmHg 91%
    23:00 +14°C° 0 mm 2 m/S 743 mmHg 95%

    7 Juni, Sonntag

    Zeit Temperatur Niederschläge Wind Luftdruck Luftfeuchtigkeit
    00:00 +13°C° 0 mm 1 m/S 743 mmHg 95%
    01:00 +13°C° 0 mm 1 m/S 744 mmHg 95%
    02:00 +12°C° 0 mm 1 m/S 744 mmHg 95%
    03:00 +12°C° 0 mm 1 m/S 745 mmHg 93%
    04:00 +13°C° 0 mm 1 m/S 745 mmHg 92%
    05:00 +13°C° 0 mm 1 m/S 745 mmHg 90%
    06:00 +15°C° 0 mm 1 m/S 745 mmHg 82%
    07:00 +18°C° 0 mm 1 m/S 746 mmHg 74%
    08:00 +19°C° 0 mm 2 m/S 746 mmHg 66%
    09:00 +20°C° 0 mm 2 m/S 746 mmHg 62%
    10:00 +23°C° 0 mm 2 m/S 746 mmHg 57%
    11:00 +24°C° 0 mm 2 m/S 747 mmHg 53%
    12:00 +24°C° 0 mm 2 m/S 746 mmHg 54%
    13:00 +25°C° 0 mm 2 m/S 746 mmHg 54%
    14:00 +25°C° 0 mm 2 m/S 746 mmHg 54%
    15:00 +25°C° 0 mm 2 m/S 745 mmHg 57%
    16:00 +25°C° 0 mm 2 m/S 745 mmHg 60%
    17:00 +25°C° 0 mm 3 m/S 745 mmHg 63%
    18:00 +22°C° 0.2 mm 3 m/S 744 mmHg 71%
    19:00 +21°C° 0.2 mm 2 m/S 744 mmHg 78%
    20:00 +19°C° 0.2 mm 2 m/S 744 mmHg 85%
    21:00 +19°C° 0.8 mm 2 m/S 744 mmHg 89%
    22:00 +18°C° 0.8 mm 2 m/S 744 mmHg 92%
    23:00 +18°C° 0.8 mm 2 m/S 744 mmHg 95%

    8 Juni, Montag

    Zeit Temperatur Niederschläge Wind Luftdruck Luftfeuchtigkeit
    00:00 +18°C° 0.2 mm 3 m/S 744 mmHg 94%
    01:00 +17°C° 0.2 mm 3 m/S 744 mmHg 93%
    02:00 +17°C° 0.2 mm 4 m/S 743 mmHg 92%
    03:00 +17°C° 0.3 mm 3 m/S 743 mmHg 93%
    04:00 +17°C° 0.3 mm 3 m/S 743 mmHg 94%
    05:00 +16°C° 0.3 mm 3 m/S 743 mmHg 95%
    06:00 +17°C° 0.5 mm 4 m/S 743 mmHg 94%
    07:00 +18°C° 0.5 mm 4 m/S 743 mmHg 93%
    08:00 +19°C° 0.5 mm 5 m/S 743 mmHg 92%
    09:00 +21°C° 0.1 mm 4 m/S 743 mmHg 86%
    10:00 +22°C° 0.1 mm 4 m/S 743 mmHg 81%
    11:00 +23°C° 0.1 mm 4 m/S 743 mmHg 75%
    12:00 +23°C° 1.1 mm 4 m/S 743 mmHg 76%
    13:00 +25°C° 1.1 mm 4 m/S 743 mmHg 77%
    14:00 +25°C° 1.1 mm 4 m/S 743 mmHg 78%
    15:00 +25°C° 0.6 mm 4 m/S 743 mmHg 78%
    16:00 +25°C° 0.6 mm 4 m/S 743 mmHg 78%
    17:00 +25°C° 0.6 mm 3 m/S 743 mmHg 78%
    18:00 +24°C° 0.7 mm 3 m/S 743 mmHg 82%
    19:00 +22°C° 0.7 mm 3 m/S 743 mmHg 86%
    20:00 +21°C° 0.7 mm 2 m/S 743 mmHg 90%
    21:00 +20°C° 0.4 mm 2 m/S 743 mmHg 92%
    22:00 +19°C° 0.4 mm 2 m/S 744 mmHg 93%
    23:00 +19°C° 0.4 mm 2 m/S 744 mmHg 95%
    Mehr zeigen